Wind_Speed
4 4 4 5 6 6 5 5 6 6 6 5 6 6 6 5 5 5 6 6 6 7 7 8 9 9 9 10 10 11 12 12 12 12 13 13 13 13 13 13 13 13 13 13 13 13 13 13 13
4 4 5 5 5 5 5 5 5 5 5 6 6 6 5 5 5 5 6 6 6 7 7 8 9 10 10 10 11 11 12 12 12 12 12 12 12 12 13 13 13 14 14 14 14 14 14 15 15
6 6 5 5 6 5 5 5 5 5 5 5 6 5 5 5 5 5 6 6 7 7 8 9 9 10 10 10 11 11 11 11 11 12 11 12 12 12 13 14 14 15 15 15 16 16 16 17 17
8 7 7 7 6 5 5 6 5 5 5 5 6 6 6 6 6 6 7 7 8 8 9 10 10 10 10 10 10 11 11 11 11 12 12 12 13 14 15 15 16 16 16 17 17 18 18 19 19
10 10 9 9 8 7 7 7 7 7 6 6 6 6 6 7 7 8 8 8 9 9 10 10 10 10 10 11 11 11 12 12 12 13 14 14 15 16 16 16 17 18 18 18 18 19 20 20 21
13 12 11 10 10 9 9 9 8 8 8 8 7 7 7 8 8 8 9 10 10 10 10 10 10 11 11 11 12 12 13 13 14 15 16 16 17 17 17 18 18 19 19 19 20 21 21 22 23
15 14 13 12 12 11 11 11 10 10 10 9 9 9 8 9 9 9 10 11 11 11 11 12 12 12 13 13 13 14 15 15 16 17 17 17 18 19 19 19 20 20 21 21 22 23 23 24 24
17 17 15 14 14 13 13 13 12 12 12 11 11 11 9 11 11 11 12 12 12 13 13 13 14 14 15 15 16 16 17 17 18 18 19 19 20 20 20 21 21 22 22 23 24 25 25 25 26
20 19 18 17 17 16 15 15 14 14 14 13 13 13 12 13 13 13 14 14 14 14 14 15 15 16 17 17 18 18 19 19 19 20 20 21 21 21 22 22 23 24 24 25 26 26 26 27 27
23 22 21 20 19 18 17 17 17 16 16 16 16 16 15 15 16 16 16 16 17 17 17 17 17 18 19 19 20 20 20 21 21 22 22 22 23 23 23 24 25 25 26 26 27 27 27 28 28
26 25 24 23 21 21 20 20 19 19 19 19 19 18 18 18 18 19 19 19 19 19 19 20 20 20 21 21 22 22 22 23 23 24 24 24 25 25 25 26 26 27 27 27 28 28 28 29 29
28 27 26 25 24 23 23 22 22 21 21 21 21 21 20 20 21 21 21 21 22 22 22 23 23 23 23 23 24 24 25 25 25 26 26 26 27 27 27 28 28 28 28 29 29 29 30 30 31
30 29 28 27 27 26 25 25 24 23 23 23 23 23 22 22 23 23 23 23 24 24 25 25 25 25 25 26 26 26 27 27 27 27 28 28 28 28 29 29 29 30 30 30 30 31 31 31 31
32 31 30 30 29 28 28 27 26 25 26 25 25 25 25 24 25 25 25 26 26 26 26 27 28 28 28 28 28 28 28 29 29 29 29 29 30 30 30 31 31 31 31 31 32 32 32 33 33
34 33 32 31 31 30 30 29 29 28 28 27 27 27 27 27 27 27 27 28 28 28 28 28 29 29 30 30 30 30 30 30 30 30 31 31 31 31 31 32 32 32 32 33 33 33 33 33 33
35 35 34 32 32 32 32 30 31 30 30 29 29 29 29 29 29 29 29 29 30 29 29 30 30 31 31 31 31 31 31 31 32 32 32 32 32 32 32 32 33 33 34 34 34 34 34 34 34
36 35 35 34 34 33 33 31 32 31 31 30 31 31 31 31 31 31 31 30 31 31 31 31 31 31 32 32 32 32 32 32 33 33 33 33 33 33 33 33 33 34 34 34 34 34 35 35 34
35 35 36 36 35 35 34 33 32 33 32 32 32 32 33 33 32 32 32 32 32 32 32 32 32 32 32 32 32 32 33 33 33 33 33 33 33 33 33 34 34 34 34 35 35 35 35 35 35
36 36 36 36 36 35 35 34 33 33 34 34 34 34 34 34 34 33 33 33 33 33 33 33 33 33 33 33 33 33 33 33 34 34 34 33 33 34 34 34 34 35 35 35 35 36 36 36 36
37 37 36 37 36 36 36 35 34 34 35 36 35 35 35 35 35 34 33 34 33 33 34 34 34 34 34 34 34 34 34 34 34 34 34 34 34 34 35 35 35 35 35 36 36 37 38 38 38
37 37 36 37 37 37 37 35 34 34 35 36 36 36 35 35 35 34 33 34 34 34 34 34 34 34 34 35 35 35 35 35 35 35 34 35 35 35 35 35 35 35 36 37 38 38 38 39 39
37 36 36 36 37 36 37 36 33 33 34 35 35 35 35 35 35 34 34 34 34 34 34 34 34 35 35 35 35 35 35 35 35 35 35 35 35 35 35 36 36 36 37 38 38 39 39 40 41
36 36 36 36 37 37 36 37 33 32 33 33 35 35 34 34 35 35 34 34 34 34 34 34 35 35 35 35 35 35 35 35 35 35 35 35 35 36 36 37 37 37 38 39 40 40 41 42 42
37 37 36 36 37 38 34 36 34 31 31 32 34 35 34 34 35 35 35 34 34 34 34 35 35 35 35 35 35 35 36 36 36 35 36 35 36 36 37 37 38 39 40 40 41 42 42 43 44
38 37 36 37 38 38 34 36 35 32 30 31 32 33 34 34 34 34 34 34 34 34 35 35 35 36 36 36 36 36 36 36 36 36 36 36 37 37 38 39 39 40 41 41 42 43 44 44 45
39 38 38 38 37 37 37 38 35 32 29 30 31 32 33 33 34 34 34 33 34 34 35 35 35 36 36 36 36 36 36 36 36 36 37 37 37 38 39 40 41 41 42 43 43 44 45 46 47
39 39 37 38 39 39 40 39 36 33 31 31 32 32 32 33 33 33 33 33 33 34 34 34 34 35 35 36 36 36 37 37 37 37 38 38 38 39 40 41 43 44 44 44 44 46 47 48 48
39 39 39 40 40 40 40 39 37 35 34 32 32 32 32 32 32 33 33 33 33 33 33 33 34 34 35 35 36 36 37 38 38 38 39 39 39 40 42 43 44 45 45 45 46 47 48 49 49
39 40 40 40 40 41 41 39 37 36 34 33 33 33 32 32 32 33 33 34 34 34 33 34 34 35 35 36 36 37 37 38 39 39 39 40 41 42 43 43 44 45 46 46 47 49 49 50 50
40 40 40 41 40 40 40 39 36 36 34 34 33 33 32 32 33 33 33 33 33 34 34 34 34 35 36 36 37 37 38 38 39 39 40 41 42 42 43 44 45 46 47 48 49 50 50 51 51
Wind_Direction
163 163 167 173 181 192 194 191 200 202 204 210 219 229 237 246 252 251 253 259 262 266 270 272 275 278 280 282 285 288 290 290 291 293 295 297 298 299 299 300 300 301 301 300 299 297 296 295 294
190 189 186 185 195 192 191 196 201 199 203 213 222 231 234 241 249 253 256 262 265 270 273 276 278 281 281 282 286 289 290 291 291 293 294 296 297 299 299 299 299 299 299 298 297 296 294 293 292
212 206 205 210 211 203 197 203 206 207 213 221 226 232 235 240 249 257 260 265 270 274 278 280 281 283 284 285 286 288 290 291 293 294 295 296 297 298 298 298 297 296 295 294 294 293 293 292 291
222 221 218 222 220 215 211 213 216 219 222 229 233 235 240 243 249 258 264 270 275 278 282 283 284 284 285 285 286 287 290 292 294 294 295 296 296 296 296 295 295 294 293 292 291 291 291 291 290
227 227 228 227 226 223 223 225 227 229 232 236 241 240 242 251 256 260 266 272 276 279 282 284 286 288 288 288 288 289 290 292 293 294 295 296 296 296 295 294 294 293 293 292 291 290 290 289 289
231 230 231 230 230 229 231 233 236 237 239 242 247 248 247 257 261 267 272 275 278 279 281 282 285 287 288 288 288 289 290 291 292 293 294 295 295 295 295 294 293 293 292 291 291 290 290 289 288
234 233 233 233 235 234 237 239 242 245 247 248 253 255 253 260 264 269 274 276 278 278 279 281 283 286 288 289 290 290 290 291 292 292 293 294 294 294 294 293 293 292 292 291 290 289 289 289 289
235 237 237 238 239 239 241 244 247 250 252 254 256 258 258 262 266 270 273 276 279 279 279 280 282 284 287 289 290 290 290 291 292 293 293 294 294 294 294 293 293 292 292 291 291 290 290 289 289
235 237 239 241 243 243 243 246 250 253 255 257 260 264 265 265 269 272 274 277 279 280 280 280 283 285 288 290 290 290 290 291 292 293 293 293 293 293 293 293 293 292 292 292 292 291 290 290 290
236 238 240 242 244 246 247 248 251 254 257 260 263 267 270 270 271 273 275 277 279 280 281 282 283 285 288 289 291 291 291 292 293 293 293 293 293 293 293 293 293 293 292 292 292 291 290 290 290
237 238 241 243 245 246 248 250 252 255 259 262 265 267 270 272 272 273 275 277 279 280 281 282 284 286 288 289 289 290 291 292 292 293 293 293 292 292 292 293 293 293 293 292 292 292 291 291 291
238 239 241 243 245 246 249 251 253 256 260 264 267 269 270 272 274 274 275 277 278 281 282 282 283 285 287 288 288 289 290 290 291 291 292 292 292 292 292 292 292 293 293 293 293 292 292 292 292
240 241 242 243 245 247 249 251 254 258 261 265 268 271 272 273 275 275 276 277 278 280 282 283 284 285 286 287 288 290 290 290 290 291 291 291 291 292 292 291 292 291 292 293 293 293 293 293 293
241 242 243 244 246 248 249 252 255 258 261 264 267 269 272 273 274 275 277 278 279 280 281 283 283 284 285 286 288 290 290 290 290 291 291 292 292 291 291 291 291 291 292 293 293 293 293 293 293
243 244 244 245 247 248 250 252 255 257 262 264 266 268 271 273 275 276 277 279 281 281 282 283 283 284 284 285 287 289 289 289 289 290 290 291 291 290 291 291 291 291 292 293 293 293 293 293 293
243 244 245 246 248 249 251 254 256 258 261 263 266 268 270 272 275 277 278 279 281 282 282 283 283 283 284 285 286 287 288 288 288 289 290 290 290 290 290 291 291 291 292 293 293 293 293 293 293
243 245 247 247 248 251 253 255 258 259 261 263 265 268 271 273 275 276 278 279 280 281 282 282 283 283 284 284 286 286 286 287 288 289 290 290 290 290 290 290 290 290 291 292 293 293 294 294 294
245 246 248 249 250 252 254 255 258 261 262 263 266 269 271 274 275 276 278 278 279 280 281 282 282 283 283 284 285 285 286 286 287 288 288 288 288 289 289 290 290 291 291 292 293 294 295 295 294
245 246 248 251 253 254 255 255 257 261 263 265 267 269 272 274 275 276 277 277 278 279 280 281 281 282 283 283 284 284 285 285 286 287 287 287 287 288 288 289 291 291 291 292 294 295 295 295 295
244 247 249 251 253 255 256 257 258 260 264 266 268 270 272 274 275 276 277 277 277 279 280 281 281 281 282 282 282 283 284 284 285 286 286 286 287 287 288 289 290 291 292 293 294 295 295 295 295
245 247 250 253 255 257 258 258 259 261 264 267 269 271 272 274 275 276 276 277 278 279 280 280 280 281 281 281 282 282 283 283 284 285 284 285 287 287 288 289 290 290 291 293 294 295 296 296 295
246 248 251 253 255 257 259 260 257 262 264 267 269 271 273 275 276 277 277 277 278 279 279 279 280 280 281 281 282 282 282 283 283 283 284 285 286 286 287 289 289 290 292 293 294 295 296 296 296
246 248 251 254 256 258 260 264 261 262 265 268 270 272 273 275 276 276 277 278 279 279 279 279 279 280 281 281 281 282 282 282 282 283 283 284 285 286 287 288 289 290 292 293 294 295 296 296 297
245 248 251 254 256 258 260 264 265 265 267 268 270 272 274 276 276 277 278 279 279 279 279 279 279 280 280 281 281 281 281 282 282 282 283 283 284 286 287 287 289 290 292 293 294 296 296 297 297
243 246 250 253 255 259 261 262 265 267 269 271 272 274 275 276 277 278 279 279 279 279 279 279 279 279 280 280 280 281 281 282 282 282 283 283 285 286 287 288 289 290 292 294 295 296 297 297 298
245 247 249 254 257 261 261 262 265 267 270 272 273 274 276 277 278 279 280 280 280 280 280 280 280 280 280 280 280 280 281 281 282 283 283 284 285 286 287 288 289 291 293 294 296 296 297 298 298
242 244 248 252 255 258 261 265 267 269 271 272 273 275 276 277 278 279 280 280 281 281 281 281 281 280 280 280 280 280 281 281 282 283 284 284 285 286 287 288 289 291 293 295 296 297 297 298 299
242 244 245 248 252 257 261 265 269 272 273 273 274 275 277 278 278 280 281 281 282 282 281 281 281 281 281 281 281 281 281 281 282 283 284 285 285 286 287 289 291 293 294 295 296 298 298 299 299
242 244 246 250 254 258 263 266 270 273 275 276 276 277 278 279 280 281 281 282 282 282 282 283 282 282 282 281 281 281 282 282 282 284 284 285 286 287 289 290 292 293 295 296 297 298 298 299 300
241 243 247 250 255 259 263 265 268 272 275 276 277 279 280 281 282 282 283 283 283 283 284 284 284 283 283 282 282 282 282 283 283 284 285 286 288 289 290 291 293 294 295 296 297 298 299 300 300
Height
5861 5861 5862 5863 5864 5864 5864 5865 5865 5866 5867 5867 5868 5868 5870 5871 5873 5876 5874 5874 5874 5875 5875 5876 5876 5876 5877 5877 5877 5877 5877 5877 5876 5876 5876 5875 5875 5875 5874 5874 5873 5873 5872 5871 5871 5870 5870 5869 5868
5861 5861 5862 5863 5863 5863 5864 5864 5864 5865 5866 5866 5867 5868 5869 5870 5871 5872 5872 5873 5873 5874 5874 5874 5875 5875 5875 5875 5875 5875 5875 5875 5875 5874 5874 5874 5873 5873 5872 5872 5871 5871 5870 5869 5869 5868 5868 5867 5866
5860 5861 5862 5863 5862 5862 5863 5863 5864 5864 5865 5866 5867 5867 5868 5869 5870 5871 5871 5872 5873 5873 5873 5873 5873 5873 5873 5873 5873 5873 5873 5873 5873 5872 5872 5872 5871 5871 5870 5870 5869 5868 5868 5867 5867 5866 5865 5864 5863
5859 5861 5862 5862 5861 5862 5862 5863 5863 5864 5864 5865 5866 5866 5867 5868 5869 5870 5870 5871 5871 5872 5872 5872 5872 5872 5872 5872 5872 5872 5871 5871 5871 5870 5870 5869 5869 5868 5868 5867 5867 5866 5865 5864 5864 5863 5862 5861 5860
5858 5859 5860 5860 5860 5861 5861 5862 5862 5863 5864 5864 5865 5866 5866 5867 5868 5868 5869 5869 5870 5870 5870 5870 5870 5870 5870 5870 5870 5870 5869 5869 5869 5868 5868 5867 5867 5866 5865 5864 5864 5863 5862 5861 5860 5859 5858 5857 5856
5856 5857 5859 5858 5859 5860 5860 5861 5861 5862 5863 5863 5864 5865 5866 5866 5866 5867 5867 5868 5868 5869 5869 5868 5868 5868 5868 5868 5868 5868 5867 5867 5866 5866 5865 5864 5864 5863 5862 5861 5861 5860 5859 5858 5857 5856 5855 5854 5853
5855 5855 5856 5856 5857 5858 5859 5859 5860 5861 5861 5862 5863 5863 5864 5864 5865 5865 5866 5866 5866 5866 5867 5866 5866 5866 5866 5866 5866 5865 5865 5864 5864 5863 5862 5861 5861 5860 5859 5858 5857 5856 5855 5854 5853 5852 5851 5849 5848
5851 5853 5854 5854 5855 5856 5857 5858 5858 5859 5860 5861 5861 5862 5863 5863 5863 5864 5864 5864 5864 5864 5864 5864 5864 5864 5864 5863 5863 5862 5862 5861 5860 5860 5859 5858 5857 5856 5855 5854 5853 5852 5851 5850 5849 5847 5846 5845 5843
5847 5851 5851 5852 5852 5854 5855 5856 5856 5857 5858 5858 5859 5859 5861 5861 5861 5862 5862 5862 5862 5862 5862 5862 5861 5861 5861 5860 5860 5859 5859 5858 5857 5856 5855 5854 5853 5852 5851 5850 5849 5848 5847 5845 5844 5843 5841 5840 5838
5844 5846 5848 5848 5849 5851 5852 5853 5854 5855 5855 5856 5856 5857 5858 5858 5859 5859 5859 5859 5859 5859 5859 5859 5859 5858 5858 5857 5856 5856 5855 5854 5853 5852 5851 5850 5849 5848 5847 5846 5844 5843 5842 5840 5839 5837 5836 5835 5833
5839 5842 5843 5844 5846 5847 5849 5850 5851 5852 5853 5853 5854 5855 5855 5855 5856 5856 5856 5856 5856 5856 5856 5855 5855 5855 5854 5854 5853 5852 5851 5850 5849 5848 5847 5846 5845 5843 5842 5841 5839 5838 5836 5835 5833 5832 5830 5829 5827
5835 5837 5838 5840 5842 5843 5845 5846 5847 5849 5850 5850 5850 5851 5852 5852 5852 5852 5853 5853 5853 5852 5852 5851 5851 5851 5850 5849 5848 5848 5847 5846 5845 5843 5842 5841 5840 5838 5837 5836 5834 5832 5831 5829 5828 5826 5825 5823 5821
5829 5832 5833 5835 5837 5839 5841 5842 5843 5845 5845 5846 5846 5847 5848 5848 5848 5848 5848 5849 5849 5848 5848 5847 5847 5846 5845 5845 5844 5843 5842 5840 5839 5838 5837 5836 5834 5833 5831 5830 5828 5827 5825 5823 5822 5820 5819 5817 5815
5823 5826 5828 5830 5832 5834 5836 5838 5839 5841 5841 5842 5842 5843 5843 5844 5844 5844 5844 5844 5844 5844 5843 5842 5842 5841 5840 5839 5838 5837 5836 5835 5834 5832 5831 5830 5828 5827 5825 5824 5822 5821 5819 5817 5815 5814 5812 5810 5808
5817 5820 5822 5825 5827 5829 5831 5833 5834 5835 5836 5837 5837 5838 5839 5839 5839 5839 5839 5839 5838 5838 5838 5837 5836 5835 5835 5834 5833 5832 5831 5829 5828 5827 5825 5824 5822 5821 5819 5817 5816 5814 5812 5810 5809 5807 5805 5803 5801
5810 5813 5816 5819 5820 5822 5826 5828 5828 5829 5830 5831 5832 5833 5833 5834 5833 5833 5833 5833 5833 5832 5832 5832 5830 5830 5829 5828 5827 5826 5824 5823 5822 5820 5819 5817 5816 5814 5813 5811 5809 5807 5805 5804 5802 5800 5798 5796 5794
5804 5807 5809 5812 5814 5816 5818 5821 5822 5822 5824 5826 5826 5827 5827 5828 5828 5828 5828 5828 5827 5826 5826 5825 5825 5823 5823 5822 5821 5819 5818 5817 5815 5814 5812 5811 5809 5808 5806 5804 5802 5800 5798 5797 5795 5793 5791 5789 5786
5798 5800 5802 5805 5807 5809 5811 5814 5815 5816 5817 5819 5820 5820 5821 5821 5822 5822 5822 5822 5821 5820 5820 5819 5818 5817 5816 5815 5814 5813 5811 5810 5809 5807 5806 5804 5802 5801 5799 5797 5795 5793 5791 5789 5787 5785 5783 5781 5779
5790 5792 5795 5797 5799 5802 5804 5807 5809 5809 5810 5812 5813 5814 5814 5815 5815 5815 5815 5815 5814 5814 5813 5813 5812 5810 5809 5808 5807 5806 5805 5803 5802 5800 5799 5797 5796 5794 5792 5790 5788 5786 5784 5782 5779 5777 5775 5773 5771
5783 5786 5788 5791 5792 5795 5797 5800 5802 5803 5803 5805 5806 5807 5807 5807 5807 5808 5808 5808 5807 5807 5806 5806 5805 5803 5803 5802 5800 5799 5798 5796 5795 5793 5792 5790 5788 5786 5784 5783 5780 5778 5776 5774 5772 5769 5767 5764 5762
5776 5779 5782 5784 5785 5787 5789 5793 5795 5796 5797 5798 5798 5799 5800 5800 5800 5801 5801 5800 5800 5800 5799 5798 5797 5796 5795 5794 5793 5792 5790 5789 5788 5786 5784 5782 5781 5779 5777 5775 5773 5770 5768 5766 5764 5761 5758 5756 5753
5769 5772 5774 5776 5778 5780 5782 5783 5789 5789 5790 5790 5791 5792 5792 5793 5793 5793 5793 5793 5793 5792 5792 5791 5790 5789 5788 5786 5785 5784 5783 5782 5780 5778 5777 5775 5773 5771 5769 5767 5765 5762 5760 5758 5755 5752 5750 5747 5744
5762 5765 5767 5769 5770 5772 5775 5775 5781 5782 5783 5783 5784 5784 5785 5786 5786 5786 5786 5785 5785 5785 5784 5783 5782 5781 5780 5779 5778 5776 5775 5774 5772 5770 5769 5767 5765 5763 5761 5759 5756 5754 5752 5749 5746 5744 5741 5738 5735
5754 5757 5759 5761 5762 5765 5769 5769 5772 5775 5776 5776 5777 5777 5778 5778 5778 5778 5778 5778 5777 5777 5776 5775 5774 5773 5772 5771 5769 5768 5767 5765 5764 5763 5761 5759 5757 5755 5752 5750 5748 5745 5743 5740 5737 5734 5731 5728 5725
5746 5750 5753 5753 5754 5758 5762 5761 5765 5768 5769 5769 5770 5770 5770 5770 5771 5770 5770 5770 5769 5769 5768 5767 5766 5765 5764 5762 5761 5760 5759 5757 5756 5754 5752 5751 5749 5746 5744 5741 5739 5737 5734 5731 5728 5725 5721 5718 5714
5739 5743 5746 5748 5749 5751 5752 5753 5758 5761 5762 5762 5763 5763 5763 5763 5763 5763 5762 5762 5761 5761 5760 5759 5758 5757 5755 5754 5753 5752 5750 5749 5747 5746 5744 5742 5740 5738 5735 5732 5730 5727 5724 5721 5718 5715 5711 5707 5704
5730 5734 5739 5740 5741 5742 5744 5747 5750 5753 5754 5755 5755 5755 5756 5755 5755 5755 5754 5754 5753 5752 5751 5750 5749 5748 5747 5746 5744 5743 5742 5740 5739 5737 5735 5733 5731 5729 5726 5723 5720 5718 5714 5711 5708 5704 5701 5697 5692
5723 5727 5729 5730 5732 5734 5737 5740 5743 5745 5746 5747 5748 5748 5748 5748 5748 5747 5746 5746 5745 5744 5743 5742 5741 5740 5738 5737 5736 5734 5733 5731 5730 5728 5726 5724 5722 5719 5716 5714 5711 5708 5704 5701 5697 5694 5690 5685 5681
5715 5718 5721 5723 5725 5728 5729 5735 5735 5736 5738 5739 5740 5740 5740 5740 5740 5739 5738 5737 5736 5736 5735 5733 5732 5731 5730 5729 5727 5726 5724 5722 5721 5719 5717 5714 5712 5710 5707 5704 5701 5697 5694 5690 5686 5682 5678 5674 5669
5706 5710 5713 5716 5718 5721 5723 5728 5729 5729 5730 5731 5731 5732 5732 5732 5732 5731 5730 5729 5728 5727 5726 5725 5724 5722 5721 5720 5718 5717 5715 5713 5712 5710 5707 5705 5703 5700 5697 5694 5690 5687 5683 5679 5675 5671 5666 5662 5657